EN

Hourly Weather Laczki

Today, 26 July, Monday

Time Temperature Precipitation Wind Pressure Humidity
00:00 +18°C° 0 mm 2 mps 731 mmHg 76%
01:00 +18°C° 0 mm 2 mps 731 mmHg 76%
02:00 +19°C° 0.2 mm 3 mps 731 mmHg 77%
03:00 +19°C° 0.2 mm 3 mps 731 mmHg 78%
04:00 +19°C° 0.2 mm 3 mps 731 mmHg 79%
05:00 +20°C° 0.1 mm 3 mps 731 mmHg 78%
06:00 +21°C° 0.1 mm 3 mps 731 mmHg 77%
07:00 +22°C° 0.1 mm 3 mps 731 mmHg 76%
08:00 +25°C° 0 mm 4 mps 731 mmHg 66%
09:00 +27°C° 0 mm 4 mps 731 mmHg 57%
10:00 +28°C° 0 mm 5 mps 731 mmHg 48%
11:00 +29°C° 0 mm 5 mps 731 mmHg 45%
12:00 +30°C° 0 mm 5 mps 731 mmHg 43%
13:00 +32°C° 0 mm 6 mps 731 mmHg 41%
14:00 +32°C° 0 mm 5 mps 731 mmHg 43%
15:00 +32°C° 0 mm 4 mps 731 mmHg 45%
16:00 +32°C° 0 mm 4 mps 731 mmHg 48%
17:00 +29°C° 0 mm 3 mps 730 mmHg 57%
18:00 +27°C° 0 mm 2 mps 730 mmHg 66%
19:00 +24°C° 0 mm 1 mps 730 mmHg 75%
20:00 +23°C° 0.1 mm 1 mps 730 mmHg 76%
21:00 +23°C° 0.1 mm 1 mps 730 mmHg 78%
22:00 +21°C° 0.1 mm 2 mps 731 mmHg 80%
23:00 +20°C° 0.1 mm 2 mps 731 mmHg 81%

Tomorrow, 27 July, Tuesday

Time Temperature Precipitation Wind Pressure Humidity
00:00 +20°C° 0.1 mm 2 mps 731 mmHg 83%
01:00 +20°C° 0.1 mm 2 mps 731 mmHg 85%
02:00 +20°C° 0 mm 2 mps 730 mmHg 85%
03:00 +20°C° 0 mm 2 mps 730 mmHg 85%
04:00 +19°C° 0 mm 3 mps 730 mmHg 86%
05:00 +21°C° 0 mm 3 mps 730 mmHg 80%
06:00 +23°C° 0 mm 4 mps 730 mmHg 74%
07:00 +25°C° 0 mm 4 mps 731 mmHg 67%
08:00 +27°C° 0 mm 5 mps 731 mmHg 61%
09:00 +28°C° 0 mm 5 mps 731 mmHg 55%
10:00 +30°C° 0 mm 5 mps 731 mmHg 49%
11:00 +30°C° 0 mm 5 mps 731 mmHg 48%
12:00 +32°C° 0 mm 5 mps 731 mmHg 47%
13:00 +32°C° 0 mm 4 mps 731 mmHg 46%
14:00 +30°C° 0.1 mm 4 mps 731 mmHg 53%
15:00 +29°C° 0.1 mm 3 mps 731 mmHg 59%
16:00 +28°C° 0.1 mm 2 mps 731 mmHg 66%
17:00 +26°C° 1 mm 2 mps 731 mmHg 75%
18:00 +24°C° 1 mm 2 mps 731 mmHg 84%
19:00 +21°C° 1 mm 2 mps 731 mmHg 93%
20:00 +21°C° 0.6 mm 1 mps 732 mmHg 94%
21:00 +21°C° 0.6 mm 1 mps 732 mmHg 95%
22:00 +20°C° 0.6 mm 1 mps 732 mmHg 96%
23:00 +20°C° 0 mm 1 mps 732 mmHg 95%

Day after tomorrow, 28 July, Wednesday

Time Temperature Precipitation Wind Pressure Humidity
00:00 +20°C° 0 mm 1 mps 732 mmHg 95%
01:00 +20°C° 0 mm 1 mps 732 mmHg 94%
02:00 +19°C° 0 mm 1 mps 732 mmHg 94%
03:00 +19°C° 0 mm 1 mps 732 mmHg 94%
04:00 +19°C° 0 mm 1 mps 732 mmHg 93%
05:00 +21°C° 0 mm 1 mps 732 mmHg 90%
06:00 +22°C° 0 mm 1 mps 732 mmHg 86%
07:00 +22°C° 0 mm 0 mps 732 mmHg 82%
08:00 +24°C° 0 mm 0 mps 732 mmHg 71%
09:00 +28°C° 0 mm 1 mps 732 mmHg 61%
10:00 +30°C° 0 mm 1 mps 732 mmHg 50%
11:00 +31°C° 0 mm 1 mps 732 mmHg 49%
12:00 +31°C° 0 mm 2 mps 731 mmHg 48%
13:00 +32°C° 0 mm 2 mps 731 mmHg 47%
14:00 +31°C° 0 mm 3 mps 731 mmHg 48%
15:00 +31°C° 0 mm 3 mps 730 mmHg 50%
16:00 +31°C° 0 mm 3 mps 730 mmHg 52%
17:00 +28°C° 0.3 mm 2 mps 730 mmHg 63%
18:00 +26°C° 0.3 mm 2 mps 730 mmHg 75%
19:00 +23°C° 0.3 mm 2 mps 730 mmHg 87%
20:00 +21°C° 0 mm 2 mps 730 mmHg 89%
21:00 +22°C° 0 mm 1 mps 730 mmHg 91%
22:00 +21°C° 0 mm 1 mps 730 mmHg 94%
23:00 +21°C° 0.1 mm 1 mps 730 mmHg 93%

29 July, Thursday

Time Temperature Precipitation Wind Pressure Humidity
00:00 +21°C° 0.1 mm 1 mps 730 mmHg 93%
01:00 +21°C° 0.1 mm 1 mps 730 mmHg 92%
02:00 +20°C° 0.3 mm 1 mps 730 mmHg 94%
03:00 +19°C° 0.3 mm 2 mps 730 mmHg 95%
04:00 +19°C° 0.3 mm 2 mps 730 mmHg 97%
05:00 +19°C° 0 mm 2 mps 731 mmHg 96%
06:00 +19°C° 0 mm 2 mps 731 mmHg 95%
07:00 +19°C° 0 mm 2 mps 732 mmHg 94%
08:00 +20°C° 0 mm 2 mps 732 mmHg 90%
09:00 +20°C° 0 mm 2 mps 732 mmHg 87%
10:00 +21°C° 0 mm 2 mps 732 mmHg 84%
11:00 +23°C° 0 mm 2 mps 732 mmHg 77%
12:00 +25°C° 0 mm 2 mps 732 mmHg 70%
13:00 +26°C° 0 mm 2 mps 732 mmHg 64%
14:00 +26°C° 0 mm 2 mps 732 mmHg 62%
15:00 +27°C° 0 mm 2 mps 732 mmHg 60%
16:00 +27°C° 0 mm 1 mps 731 mmHg 58%
17:00 +26°C° 0 mm 1 mps 731 mmHg 66%
18:00 +24°C° 0 mm 1 mps 731 mmHg 75%
19:00 +22°C° 0 mm 1 mps 730 mmHg 83%
20:00 +21°C° 0 mm 1 mps 731 mmHg 85%
21:00 +21°C° 0 mm 1 mps 731 mmHg 86%
22:00 +20°C° 0 mm 1 mps 731 mmHg 88%
23:00 +20°C° 0 mm 1 mps 730 mmHg 88%

30 July, Friday

Time Temperature Precipitation Wind Pressure Humidity
00:00 +20°C° 0 mm 1 mps 730 mmHg 88%
01:00 +19°C° 0 mm 1 mps 730 mmHg 88%
02:00 +19°C° 0 mm 1 mps 730 mmHg 87%
03:00 +19°C° 0 mm 1 mps 729 mmHg 86%
04:00 +19°C° 0 mm 1 mps 729 mmHg 85%
05:00 +22°C° 0 mm 1 mps 729 mmHg 78%
06:00 +24°C° 0 mm 1 mps 729 mmHg 71%
07:00 +26°C° 0 mm 1 mps 729 mmHg 64%
08:00 +28°C° 0 mm 2 mps 729 mmHg 57%
09:00 +30°C° 0 mm 2 mps 729 mmHg 49%
10:00 +31°C° 0 mm 3 mps 729 mmHg 42%
11:00 +33°C° 0 mm 3 mps 728 mmHg 40%
12:00 +34°C° 0 mm 3 mps 728 mmHg 38%
13:00 +35°C° 0 mm 3 mps 728 mmHg 36%
14:00 +34°C° 0 mm 3 mps 727 mmHg 41%
15:00 +33°C° 0 mm 3 mps 727 mmHg 46%
16:00 +30°C° 0 mm 2 mps 726 mmHg 51%
17:00 +27°C° 0.5 mm 2 mps 726 mmHg 65%
18:00 +24°C° 0.5 mm 1 mps 726 mmHg 78%
19:00 +21°C° 0.5 mm 1 mps 727 mmHg 92%
20:00 +21°C° 1.2 mm 1 mps 727 mmHg 94%
21:00 +20°C° 1.2 mm 1 mps 727 mmHg 95%
22:00 +20°C° 1.2 mm 1 mps 727 mmHg 97%
23:00 +20°C° 0.1 mm 1 mps 727 mmHg 96%

31 July, Saturday

Time Temperature Precipitation Wind Pressure Humidity
00:00 +19°C° 0.1 mm 1 mps 728 mmHg 95%
01:00 +19°C° 0.1 mm 1 mps 728 mmHg 94%
02:00 +19°C° 0 mm 1 mps 728 mmHg 94%
03:00 +19°C° 0 mm 1 mps 728 mmHg 94%
04:00 +19°C° 0 mm 1 mps 728 mmHg 95%
05:00 +20°C° 0 mm 1 mps 728 mmHg 92%
06:00 +21°C° 0 mm 1 mps 728 mmHg 89%
07:00 +23°C° 0 mm 1 mps 729 mmHg 86%
08:00 +22°C° 0.4 mm 1 mps 729 mmHg 88%
09:00 +22°C° 0.4 mm 1 mps 729 mmHg 90%
10:00 +21°C° 0.4 mm 1 mps 729 mmHg 92%
11:00 +23°C° 0.1 mm 1 mps 729 mmHg 82%
12:00 +25°C° 0.1 mm 2 mps 729 mmHg 71%
13:00 +26°C° 0.1 mm 2 mps 729 mmHg 61%
14:00 +25°C° 0.4 mm 2 mps 729 mmHg 67%
15:00 +25°C° 0.4 mm 2 mps 729 mmHg 73%
16:00 +24°C° 0.4 mm 2 mps 729 mmHg 79%
17:00 +23°C° 0 mm 1 mps 729 mmHg 81%
18:00 +22°C° 0 mm 1 mps 729 mmHg 83%
19:00 +20°C° 0 mm 1 mps 729 mmHg 84%
20:00 +20°C° 0 mm 1 mps 729 mmHg 85%
21:00 +19°C° 0 mm 1 mps 730 mmHg 85%
22:00 +18°C° 0 mm 1 mps 730 mmHg 86%
23:00 +18°C° 0 mm 1 mps 730 mmHg 85%
Show more